Location: Savignano sul Rubicone
(44.0950°N, 12.4090°E)
Time: 03:30:25
(UTC+02:00)

OTV 5 (USA 277) - Visible Passes

Search period start: 14 October 2019 00:00
Search period end: 24 October 2019 00:00
Orbit: 310 x 324 km, 54.5° (Epoch: 08 October)

Date Brightness Start Highest point End Pass type
(mag) Time Alt. Az. Time Alt. Az. Time Alt. Az.
14 Oct ? 05:38:55 11° N 05:39:15 11° N 05:40:02 10° NNE visible
15 Oct ? 05:53:05 12° N 05:54:10 14° NNE 05:55:44 10° NE visible
16 Oct ? 06:07:19 13° NNW 06:09:01 21° NNE 06:11:12 10° ENE visible
17 Oct ? 06:21:37 14° NW 06:23:45 39° NNE 06:26:22 10° ESE visible
18 Oct ? 05:05:07 12° NE 05:05:07 12° NE 05:05:37 10° ENE visible
18 Oct ? 06:36:01 13° NW 06:38:21 79° SW 06:41:04 10° SE visible
19 Oct ? 05:19:36 21° ENE 05:19:36 21° ENE 05:20:56 10° E visible
19 Oct ? 06:50:31 11° WNW 06:52:48 27° SW 06:55:11 10° SSE visible
20 Oct ? 05:34:13 32° ESE 05:34:13 32° ESE 05:35:53 10° ESE visible
21 Oct ? 05:48:58 24° SSE 05:48:58 24° SSE 05:50:20 10° SSE visible
22 Oct ? 06:03:51 11° S 06:03:51 11° S 06:04:00 10° S visible
